Hourly Data Report for October 27, 2003

TORONTO CITY
ONTARIO

43°40'00.000" N
79°24'00.000" W
112.50 m
6158355
71508
XTO

Download Data

Hourly Data (October 2003)
Hourly Data Report for October 27, 2003
TIME
LST
Temp Definition
°C
Dew Point Definition
°C
Rel Hum Definition
%
Precip. Amount Definition
mm

Wind Dir Definition
10's deg

Wind Spd Definition
km/h
Visibility Definition
km
Stn Press Definition
kPa
Hmdx Definition


Wind Chill Definition


Weather Definition


00:00 6.6 6.1 97   LegendMM LegendMM LegendMM 99.99     LegendNANA
01:00 6.8 6.5 98   LegendMM LegendMM LegendMM 99.98     LegendNANA
02:00 7.4 7.0 97   LegendMM LegendMM LegendMM 99.96     LegendNANA
03:00 7.1 6.4 95   LegendMM LegendMM LegendMM 99.90     LegendNANA
04:00 7.1 5.9 92   LegendMM LegendMM LegendMM 99.82     LegendNANA
05:00 6.8 5.6 92   LegendMM LegendMM LegendMM 99.80     LegendNANA
06:00 6.7 5.3 91   LegendMM LegendMM LegendMM 99.79     LegendNANA
07:00 6.6 5.2 91   LegendMM LegendMM LegendMM 99.72     LegendNANA
08:00 6.8 5.4 91   LegendMM LegendMM LegendMM 99.67     LegendNANA
09:00 7.1 5.6 90   LegendMM LegendMM LegendMM 99.60     LegendNANA
10:00 7.2 5.6 90   LegendMM LegendMM LegendMM 99.54     LegendNANA
11:00 7.8 6.1 89   LegendMM LegendMM LegendMM 99.47     LegendNANA
12:00 8.4 6.6 88   LegendMM LegendMM LegendMM 99.37     LegendNANA
13:00 8.6 6.5 87   LegendMM LegendMM LegendMM 99.29     LegendNANA
14:00 8.7 6.4 85   LegendMM LegendMM LegendMM 99.20     LegendNANA
15:00 8.7 6.5 86   LegendMM LegendMM LegendMM 99.17     LegendNANA
16:00 7.9 5.9 87   LegendMM LegendMM LegendMM 99.17     LegendNANA
17:00 7.3 5.4 88   LegendMM LegendMM LegendMM 99.14     LegendNANA
18:00 7.0 4.9 86   LegendMM LegendMM LegendMM 99.16     LegendNANA
19:00 6.0 4.0 87   LegendMM LegendMM LegendMM 99.25     LegendNANA
20:00 5.8 3.3 84   LegendMM LegendMM LegendMM 99.29     LegendNANA
21:00 5.4 2.7 83   LegendMM LegendMM LegendMM 99.36     LegendNANA
22:00 4.6 1.5 80   LegendMM LegendMM LegendMM 99.40     LegendNANA
23:00 4.2 1.4 82   LegendMM LegendMM LegendMM 99.45     LegendNANA

Notes on Data Quality.

Legend

  • E = Estimated
  • M = Missing
  • NA = Not Available*
  • [empty] = Indicates an unobserved value
Date modified: